Location: Colossi of Memnon
(25.7167°N, 32.6167°E)
Time: 11:54:07
(UTC+00:00)

CZ-4C R/B - Pass Details

Date: 05 March 2021
Orbit: 614 x 1388 km, 63.4° (Epoch: 09 April)

Event Time Altitude Azimuth Distance (km) Brightness Sun altitude
Exits shadow 03:42:59 - 263° (W) 2,271 3.8 -6.7°
Reaches altitude 10° 03:43:45 10° 270° (W) 2,085 3.6 -6.5°
Maximum altitude 03:46:44 17° 310° (NW) 1,777 3.4 -5.8°
Drops below altitude 10° 03:49:58 10° 349° (N) 2,301 4.3 -5.1°
Sets 03:53:30 0° 10° (N) 3,385 5.4 -4.3°
